Погода в Ишиме

Погода в Ишиме : погода сейчас, прогноз погоды и архив. Всё, что Вы хотите узнать о погоде в Ишиме!

Хотите узнать прогноз погоды в Ишиме? Тогда Вам сюда: Погода в Ишиме

Поиск расширенной информации на нашем сайте:

Другие новости

Новости СМИ2

Главная страница сайта

Новости сайта

03.07.2017

Напоминаем, что на нашем специализированном сайте Метеоцентр.Азия вы можете получить высокодетализированные автоматические прогнозы погоды по пунктам России, СНГ и мира в авиационном формате (включающие направление и скорость ветра, видимость, явления погоды, количество и форму облачности, нижнюю и верхнюю границу облачности).


Погода в Ишиме - сегодня

Время (UTC), дата Ветер
(°,м/с) 
Видим.   Явления Облачность Т
(°С)
Тd
(°С)
f(%) Тe
(°С)
Pmin
(гПа)
dP
(гПа)
Po
(мм)
O2
(г/м3)
Тmin Tmax R s Состояние
почвы
00 15.08.18 тихо ()   20000 м  {гроза, ливн. осадки}  10/3 1000 м средняя, верхняя 
[Sc|Ac trans|Ci fib]
+16.9 +15.9 94 +27  1009.4  -1.3  750  281           
03 15.08.18 180 (Ю) 20000 м    9/4 600 м кучево-дожд., средняя, верхняя 
[Cb cap|Ac trans|Ci fib]
+19.5 +16.3 82 +32  1009.1  -0.2  750  278  +16.1       
06 15.08.18 160 (Ю) 20000 м    10/8 1000 м верхняя 
[Sc|Ci fib]
+22.8 +14.8 61 +31  1007.7  -1.4  749  275           
09 15.08.18 150 (ЮВ) 20000 м    10/3 1000 м верхняя 
[Sc|Ci fib]
+25.9 +16 54 +36  1007.2  -0.3  748  272           
12 15.08.18 160 (Ю) 20000 м    10/3 600 м кучево-дожд., средняя, верхняя 
[Cb cap|Ac trans|Ci fib]
+26 +14.6 49 +34  1006.4  -0.8  748  272           
15 15.08.18 090 (В) 20000 м    9/9 600 м кучево-дожд. 
[Cb cap]
+23.2 +16.8 67 +35  1005.7  -0.8  747  274           
18 15.08.18 190 (Ю) 10 км  зарница  6/6 600 м кучево-дожд. 
[Cb cap]
+20.1 +14 68 +27  1005.5  -0.3  747  278           
21 15.08.18 240 (ЮЗ) 10 км    6/6 1000 м 
[Sc]
+16.9 +15.5 91 +28  1006  0.4  747  280           
00 16.08.18 180 (Ю) 4000 м  дымка  10/10 600 м кучево-дожд. 
[Cb cap]
+15.9 +14.8 93 +24  1006.8  0.7  748  282           
03 16.08.18 190 (Ю) 20000 м    8/8 600 м кучево-дожд. 
[Cb cap]
+16.8 +14.3 85 +26  1007.6  0.9  749  281  +15.1         
06 16.08.18 220 (ЮЗ) 20000 м    10/10 600 м кучево-дожд. 
[Cb cap]
+18.2 +13.5 74 +25  1008.7  1.1  749  280  +15.2         
09 16.08.18 250 (З) 20000 м    4/4 1000 м 
[Sc]
+22.4 +13.8 58 +29  1009  0.5  750  276           
12 16.08.18 330 (СЗ) 20000 м    1/1 600 м 
[Cu Sc]
+20.5 +15.1 71 +29  1010.3  1.2  751  278           
18 16.08.18 310 (СЗ) 10 км    3/0 средняя 
[Ac trans]
+15.6 +13.9 90 +24  1011.9  0.6  752  284           
21 16.08.18 тихо ()   10 км  туман поземный  ясно 
+12.6 +12.1 97 +17  1011.8  -0.2  752  287           
00 17.08.18 180 (Ю) 1000 м  дымка  10/0 средняя, верхняя 
[Ac trans|Ci fib]
+11.2 +10.9 98 +14  1011.6  -0.3  751  289           
03 17.08.18 200 (Ю) 20000 м  {туман}  6/6 1000 м 
[Sc]
+14.9 +14.6 98 +24  1011.4  -0.1  751  284  +10.7         
09 17.08.18 230 (ЮЗ) 20000 м    9/8 600 м кучево-дожд., средняя 
[Cb cap|Ac trans]
+21.7 +14.5 64 +30  1007.7  -1.6  749  276           
12 17.08.18 240 (ЮЗ) 20000 м    8/8 600 м кучево-дожд., средняя 
[Cb cap|Ac trans]
+22.8 +14.9 61 +31  1005.8  -1.8  747  275           
15 17.08.18 250 (З) 2{11}  20000 м  {гроза, ливн. осадки}  9/9 600 м кучево-дожд. 
[Cb cap]
+17.4 +16.4 94 +29  1006.5  0.5  748  280    +24.9     
18 17.08.18 280 (З) 10 км  {гроза, ливн. осадки}  ясно 
+14.9 +13.2 90 +22  1007.4  0.8  748  283         
21 17.08.18 280 (З) 10 км    10/0 средняя 
[Ac und]
+14.5 +12.4 87 +20  1007.6  0.2  748  284           
00 18.08.18 260 (З) 20000 м    9/9 1000 м 
[Sc]
+12.8 +11.1 89 +16  1008.5  0.9  749  286           
03 18.08.18 270 (З) 20000 м    10/10 600 м кучево-дожд. 
[Cb cap]
+13.5 +10.6 83 +15  1009.3  0.8  750  286  +12.1         
09 18.08.18 260 (З) 6{10}  20000 м    9/9 600 м кучево-дожд. 
[Cb cap]
+15.2 +9 66 +15  1010.7  0.5  751  285           
Время (UTC), дата Ветер
(°,м/с) 
Видим.   Явления Облачность Т
(°С)
Тd
(°С)
f(%) Тe
(°С)
Pmin
(гПа)
dP
(гПа)
Po
(мм)
O2
(г/м3)
Тmin Tmax R s Состояние
почвы

Для получения пояснительной информации подведите курсор к названию столбца.

ПОГОДА в Ишиме - архив

Всё, что Вы хотите узнать о погоде в Ишиме - удобно и подробно!

Выберите нужную дату (начиная с 1 января 2015* года) и нажмите кнопку "Найти".
Будут отображены архивные сводки погоды по пункту Ишим, начиная с указанной даты.


Отображать данные в формате CSV (для использования в таблицах Excel)


Внимание! Наш архив погоды предназначен исключительно для личного некоммерческого использования в познавательных целях. Если Вам необходимы официальные справки о состоянии погоды (для производственных, юридических, коммерческих и т.п. целей), обращайтесь в органы Росгидромета.

*Примечание: данная дата относится к архиву по метеостанциям СССР (Россия, СНГ, Балтия).
Архив по метеостанциям Зарубежной Европы и Азии (кроме Китая) хранится 10 дней, по другим регионам земного шара (Китай, Африка, Америка, Австралия, Океания) - 1 день.

Ишим - район местоположения метеостанции


Название, широта, долгота, высота метеостанции:
Ишим 56.1°ш. 69.4°д. 82 м над ур. моря [Российская Федерация]

Дополнительная информация

В oтличие oт бoльшинства пoгoдных сайтoв мы публикуем пoдрoбную метеoинфoрмацию в детальнoм прoфессиoнальнoм фoрмате.

Характеристики температуры и влажнoсти вoздуха измеряются на высoте 2 м в тени вдали oт зданий и деревьев.
Скoрoсть ветра измеряется на высoте 10 м (на урoвне рoста челoвека скoрoсть ветра ниже в 1.5-2 раза). Если метеoстанция нахoдится в гoрoде или в лесу, тo скoрoсть ветра занижена на 2-4 м/с пo сравнению с oткрытым местoм. Скoрoсть ветра над акватoриями крупных рек и oзёр, а также на вершинах хoлмoв на 2-5 м/с выше, чем в oбычных услoвиях.
Атмoсфернoе давление в разных тoчках местнoсти мoжет значительнo oтличаться oт давления на метеoстанции, в зависимoсти oт услoвий рельефа (при пoдъёме на 10 м давление пoнижается примернo на 1 мм рт.ст.).